QPF
0.00 0.00 0.00 0.00 0.00 0.00 0.00 0.00 0.00 0.00 0.00 0.00 0.00 0.00 0.01 0.01 0.00 0.00 0.00 0.00 0.00 0.00 0.00 0.01 0.01 0.01 0.01 0.02 0.02 0.03 0.03 0.04 0.03 0.02 0.02 0.03 0.04 0.05 0.05 0.05 0.07 0.09 0.08
0.00 0.00 0.00 0.00 0.00 0.00 0.00 0.00 0.00 0.00 0.00 0.00 0.00 0.00 0.01 0.01 0.01 0.01 0.00 0.00 0.00 0.01 0.00 0.00 0.01 0.01 0.01 0.01 0.02 0.03 0.03 0.03 0.04 0.03 0.03 0.03 0.03 0.04 0.06 0.06 0.07 0.09 0.08
0.00 0.00 0.00 0.00 0.00 0.00 0.00 0.00 0.00 0.00 0.00 0.00 0.00 0.00 0.00 0.00 0.00 0.01 0.00 0.00 0.00 0.00 0.01 0.01 0.01 0.01 0.01 0.01 0.02 0.03 0.03 0.04 0.03 0.03 0.03 0.02 0.02 0.03 0.07 0.08 0.08 0.09 0.10
0.00 0.00 0.00 0.00 0.00 0.00 0.00 0.00 0.00 0.00 0.00 0.00 0.00 0.00 0.00 0.00 0.00 0.00 0.00 0.00 0.00 0.00 0.00 0.01 0.01 0.02 0.02 0.02 0.02 0.02 0.02 0.03 0.04 0.03 0.03 0.03 0.02 0.03 0.05 0.08 0.09 0.08 0.09
0.00 0.00 0.00 0.00 0.00 0.00 0.00 0.00 0.00 0.00 0.00 0.00 0.00 0.00 0.00 0.00 0.00 0.01 0.00 0.01 0.01 0.00 0.01 0.00 0.00 0.01 0.01 0.02 0.02 0.01 0.01 0.01 0.02 0.03 0.03 0.03 0.02 0.02 0.02 0.04 0.07 0.09 0.09
0.00 0.00 0.00 0.00 0.00 0.00 0.00 0.00 0.00 0.00 0.00 0.00 0.00 0.00 0.00 0.00 0.01 0.02 0.01 0.01 0.01 0.01 0.01 0.01 0.01 0.01 0.02 0.02 0.02 0.01 0.01 0.01 0.02 0.02 0.03 0.03 0.02 0.02 0.02 0.03 0.05 0.08 0.09
0.00 0.00 0.00 0.00 0.00 0.00 0.00 0.00 0.00 0.00 0.00 0.00 0.00 0.00 0.00 0.00 0.01 0.01 0.01 0.01 0.01 0.01 0.01 0.01 0.02 0.03 0.02 0.01 0.01 0.02 0.02 0.02 0.02 0.02 0.03 0.02 0.02 0.02 0.03 0.03 0.03 0.05 0.06
0.00 0.00 0.00 0.00 0.00 0.00 0.00 0.00 0.00 0.00 0.00 0.00 0.00 0.00 0.00 0.00 0.00 0.00 0.00 0.00 0.00 0.01 0.01 0.02 0.03 0.02 0.01 0.02 0.01 0.01 0.01 0.01 0.01 0.02 0.02 0.02 0.02 0.03 0.04 0.04 0.05 0.08 0.08
0.00 0.00 0.00 0.00 0.00 0.00 0.00 0.00 0.00 0.00 0.00 0.00 0.00 0.00 0.00 0.00 0.00 0.00 0.00 0.00 0.00 0.00 0.01 0.01 0.02 0.01 0.01 0.02 0.01 0.01 0.00 0.00 0.00 0.00 0.01 0.02 0.02 0.03 0.04 0.05 0.05 0.06 0.09
0.00 0.00 0.00 0.00 0.00 0.00 0.00 0.00 0.00 0.00 0.00 0.00 0.00 0.00 0.00 0.00 0.00 0.00 0.00 0.00 0.00 0.00 0.00 0.01 0.02 0.02 0.01 0.01 0.01 0.01 0.00 0.00 0.00 0.00 0.00 0.02 0.02 0.02 0.03 0.03 0.04 0.05 0.06
0.00 0.00 0.00 0.00 0.00 0.00 0.00 0.00 0.00 0.00 0.00 0.00 0.00 0.00 0.00 0.00 0.00 0.00 0.00 0.00 0.00 0.00 0.00 0.00 0.00 0.01 0.01 0.01 0.01 0.00 0.00 0.00 0.00 0.00 0.00 0.00 0.01 0.02 0.02 0.02 0.03 0.05 0.05
0.00 0.00 0.00 0.00 0.00 0.00 0.00 0.00 0.00 0.00 0.00 0.00 0.00 0.00 0.00 0.00 0.00 0.00 0.00 0.00 0.00 0.00 0.00 0.00 0.00 0.01 0.01 0.01 0.01 0.00 0.00 0.01 0.01 0.01 0.00 0.01 0.01 0.01 0.01 0.01 0.03 0.04 0.06
0.00 0.00 0.00 0.00 0.00 0.00 0.00 0.00 0.00 0.00 0.00 0.00 0.00 0.00 0.00 0.00 0.00 0.00 0.00 0.00 0.00 0.00 0.00 0.00 0.00 0.00 0.01 0.03 0.01 0.01 0.01 0.01 0.01 0.01 0.01 0.01 0.01 0.01 0.01 0.02 0.03 0.04 0.06
0.00 0.00 0.00 0.00 0.00 0.00 0.00 0.00 0.00 0.00 0.00 0.00 0.00 0.00 0.00 0.00 0.00 0.00 0.00 0.00 0.00 0.00 0.00 0.00 0.00 0.00 0.01 0.03 0.02 0.01 0.01 0.00 0.01 0.02 0.02 0.01 0.01 0.01 0.02 0.03 0.04 0.05 0.06
0.00 0.00 0.00 0.00 0.00 0.00 0.00 0.00 0.00 0.00 0.00 0.00 0.00 0.00 0.00 0.00 0.00 0.00 0.00 0.00 0.00 0.00 0.00 0.00 0.00 0.00 0.01 0.01 0.02 0.01 0.01 0.01 0.02 0.02 0.02 0.01 0.02 0.02 0.03 0.04 0.05 0.07 0.07
0.00 0.00 0.00 0.00 0.00 0.00 0.00 0.00 0.00 0.00 0.00 0.00 0.00 0.00 0.00 0.00 0.00 0.00 0.00 0.00 0.00 0.00 0.00 0.00 0.00 0.00 0.00 0.01 0.01 0.01 0.01 0.01 0.01 0.02 0.02 0.02 0.02 0.03 0.04 0.05 0.05 0.07 0.08
0.00 0.00 0.00 0.00 0.00 0.00 0.00 0.00 0.00 0.00 0.00 0.00 0.00 0.00 0.00 0.00 0.00 0.00 0.00 0.00 0.00 0.00 0.00 0.00 0.00 0.00 0.00 0.00 0.01 0.01 0.01 0.01 0.01 0.01 0.01 0.03 0.03 0.03 0.04 0.04 0.05 0.05 0.05
0.00 0.00 0.00 0.00 0.00 0.00 0.00 0.00 0.00 0.00 0.00 0.00 0.00 0.00 0.00 0.00 0.00 0.00 0.00 0.00 0.00 0.00 0.00 0.00 0.00 0.00 0.00 0.01 0.01 0.01 0.00 0.00 0.01 0.01 0.02 0.03 0.04 0.04 0.04 0.05 0.05 0.05 0.05
0.00 0.00 0.00 0.00 0.00 0.00 0.00 0.00 0.00 0.00 0.00 0.00 0.00 0.00 0.00 0.00 0.00 0.00 0.00 0.00 0.00 0.00 0.00 0.00 0.00 0.00 0.00 0.00 0.00 0.00 0.00 0.00 0.01 0.01 0.02 0.02 0.02 0.03 0.04 0.05 0.06 0.07 0.08
0.00 0.00 0.00 0.00 0.00 0.00 0.00 0.00 0.00 0.00 0.00 0.00 0.00 0.00 0.00 0.00 0.00 0.00 0.00 0.00 0.00 0.00 0.00 0.00 0.00 0.00 0.00 0.00 0.00 0.00 0.00 0.00 0.00 0.01 0.01 0.02 0.02 0.03 0.04 0.05 0.05 0.06 0.07
0.00 0.00 0.00 0.00 0.00 0.00 0.00 0.00 0.00 0.00 0.00 0.00 0.00 0.00 0.00 0.00 0.00 0.00 0.00 0.00 0.00 0.00 0.00 0.00 0.00 0.00 0.00 0.00 0.00 0.00 0.00 0.00 0.00 0.00 0.01 0.01 0.02 0.03 0.04 0.05 0.05 0.05 0.06
0.00 0.00 0.00 0.00 0.00 0.00 0.00 0.00 0.00 0.00 0.00 0.00 0.00 0.00 0.00 0.00 0.00 0.00 0.00 0.00 0.00 0.00 0.00 0.00 0.00 0.00 0.00 0.00 0.00 0.00 0.00 0.00 0.00 0.00 0.01 0.01 0.01 0.01 0.02 0.04 0.05 0.06 0.07
0.00 0.00 0.00 0.00 0.00 0.00 0.00 0.00 0.00 0.00 0.00 0.00 0.00 0.00 0.00 0.00 0.00 0.00 0.00 0.00 0.00 0.00 0.00 0.00 0.00 0.00 0.00 0.00 0.00 0.00 0.00 0.00 0.00 0.00 0.01 0.01 0.01 0.01 0.02 0.03 0.04 0.05 0.06
0.00 0.00 0.00 0.00 0.00 0.00 0.00 0.00 0.00 0.00 0.00 0.00 0.00 0.00 0.00 0.00 0.00 0.00 0.00 0.00 0.00 0.00 0.00 0.00 0.00 0.00 0.00 0.00 0.00 0.00 0.00 0.00 0.00 0.00 0.00 0.01 0.01 0.01 0.02 0.03 0.04 0.05 0.06
0.00 0.00 0.00 0.00 0.00 0.00 0.00 0.00 0.00 0.00 0.00 0.00 0.00 0.00 0.00 0.00 0.00 0.00 0.00 0.00 0.00 0.00 0.00 0.00 0.00 0.00 0.00 0.00 0.00 0.00 0.00 0.00 0.00 0.00 0.00 0.00 0.01 0.02 0.02 0.03 0.04 0.05 0.06
0.00 0.00 0.00 0.00 0.00 0.00 0.00 0.00 0.00 0.00 0.00 0.00 0.00 0.00 0.00 0.00 0.00 0.00 0.00 0.00 0.00 0.00 0.00 0.00 0.00 0.00 0.00 0.00 0.00 0.00 0.00 0.00 0.00 0.00 0.00 0.01 0.01 0.01 0.02 0.03 0.04 0.05 0.06
MSLP
1013.84 1013.95 1014.11 1014.28 1014.42 1014.52 1014.55 1014.54 1014.48 1014.42 1014.36 1014.31 1014.27 1014.24 1014.20 1014.15 1014.08 1014.00 1013.91 1013.82 1013.75 1013.70 1013.66 1013.64 1013.61 1013.56 1013.47 1013.35 1013.18 1012.99 1012.78 1012.56 1012.34 1012.12 1011.91 1011.70 1011.47 1011.23 1010.97 1010.72 1010.48 1010.30 1010.20
1013.57 1013.69 1013.85 1014.02 1014.17 1014.28 1014.34 1014.35 1014.32 1014.28 1014.23 1014.19 1014.16 1014.13 1014.10 1014.07 1014.02 1013.96 1013.90 1013.84 1013.78 1013.73 1013.69 1013.64 1013.58 1013.50 1013.38 1013.24 1013.07 1012.89 1012.70 1012.51 1012.33 1012.16 1011.97 1011.77 1011.55 1011.28 1010.99 1010.68 1010.37 1010.11 1009.93
1013.32 1013.46 1013.64 1013.82 1013.97 1014.09 1014.16 1014.18 1014.17 1014.15 1014.11 1014.08 1014.05 1014.02 1014.00 1013.96 1013.91 1013.86 1013.80 1013.74 1013.68 1013.63 1013.57 1013.50 1013.42 1013.32 1013.19 1013.05 1012.89 1012.73 1012.57 1012.42 1012.28 1012.14 1011.99 1011.81 1011.58 1011.31 1011.00 1010.65 1010.30 1009.98 1009.71
1013.08 1013.25 1013.44 1013.63 1013.79 1013.90 1013.98 1014.01 1014.02 1014.00 1013.98 1013.95 1013.93 1013.90 1013.86 1013.81 1013.75 1013.68 1013.61 1013.53 1013.46 1013.39 1013.31 1013.24 1013.15 1013.04 1012.92 1012.78 1012.64 1012.50 1012.36 1012.24 1012.13 1012.02 1011.89 1011.72 1011.51 1011.25 1010.93 1010.56 1010.19 1009.82 1009.50
1012.84 1013.04 1013.25 1013.43 1013.58 1013.68 1013.75 1013.79 1013.80 1013.80 1013.79 1013.77 1013.75 1013.71 1013.66 1013.59 1013.50 1013.41 1013.30 1013.20 1013.11 1013.02 1012.94 1012.86 1012.77 1012.67 1012.56 1012.44 1012.32 1012.20 1012.08 1011.97 1011.87 1011.76 1011.63 1011.48 1011.27 1011.01 1010.70 1010.34 1009.96 1009.58 1009.22
1012.60 1012.83 1013.03 1013.20 1013.32 1013.40 1013.45 1013.48 1013.49 1013.49 1013.49 1013.49 1013.46 1013.42 1013.36 1013.26 1013.15 1013.02 1012.88 1012.76 1012.64 1012.55 1012.47 1012.39 1012.32 1012.25 1012.16 1012.06 1011.95 1011.83 1011.71 1011.59 1011.47 1011.35 1011.21 1011.04 1010.84 1010.59 1010.29 1009.95 1009.58 1009.21 1008.85
1012.39 1012.61 1012.79 1012.92 1013.01 1013.05 1013.07 1013.08 1013.08 1013.09 1013.09 1013.09 1013.07 1013.02 1012.94 1012.82 1012.68 1012.52 1012.36 1012.21 1012.09 1011.99 1011.92 1011.87 1011.83 1011.78 1011.72 1011.64 1011.54 1011.41 1011.28 1011.12 1010.97 1010.80 1010.63 1010.43 1010.21 1009.97 1009.69 1009.38 1009.05 1008.71 1008.37
1012.22 1012.43 1012.57 1012.64 1012.67 1012.66 1012.64 1012.62 1012.61 1012.61 1012.62 1012.62 1012.59 1012.53 1012.43 1012.29 1012.12 1011.94 1011.76 1011.60 1011.47 1011.39 1011.34 1011.32 1011.32 1011.30 1011.27 1011.21 1011.10 1010.96 1010.78 1010.58 1010.37 1010.14 1009.91 1009.68 1009.44 1009.19 1008.94 1008.66 1008.38 1008.09 1007.80
1012.13 1012.29 1012.38 1012.39 1012.36 1012.30 1012.24 1012.19 1012.16 1012.15 1012.15 1012.13 1012.10 1012.02 1011.89 1011.73 1011.53 1011.32 1011.13 1010.96 1010.84 1010.78 1010.76 1010.77 1010.80 1010.82 1010.82 1010.76 1010.64 1010.47 1010.25 1009.99 1009.71 1009.42 1009.13 1008.85 1008.58 1008.33 1008.09 1007.86 1007.63 1007.40 1007.18
1012.12 1012.23 1012.26 1012.22 1012.14 1012.04 1011.94 1011.87 1011.82 1011.79 1011.77 1011.74 1011.68 1011.57 1011.42 1011.22 1010.99 1010.75 1010.54 1010.36 1010.25 1010.20 1010.20 1010.25 1010.31 1010.36 1010.36 1010.31 1010.18 1009.98 1009.71 1009.39 1009.04 1008.67 1008.32 1007.99 1007.70 1007.44 1007.22 1007.02 1006.84 1006.68 1006.52
1012.18 1012.26 1012.25 1012.17 1012.06 1011.93 1011.82 1011.73 1011.67 1011.63 1011.59 1011.53 1011.43 1011.28 1011.08 1010.83 1010.56 1010.29 1010.05 1009.86 1009.75 1009.70 1009.72 1009.78 1009.86 1009.92 1009.93 1009.87 1009.72 1009.49 1009.17 1008.79 1008.38 1007.96 1007.55 1007.18 1006.86 1006.59 1006.37 1006.19 1006.05 1005.94 1005.84
1012.29 1012.35 1012.33 1012.24 1012.13 1012.01 1011.91 1011.82 1011.76 1011.70 1011.63 1011.54 1011.39 1011.19 1010.93 1010.63 1010.31 1010.00 1009.72 1009.51 1009.38 1009.33 1009.34 1009.40 1009.48 1009.54 1009.54 1009.47 1009.29 1009.03 1008.67 1008.25 1007.79 1007.32 1006.86 1006.45 1006.10 1005.81 1005.58 1005.42 1005.29 1005.21 1005.14
1012.42 1012.48 1012.48 1012.42 1012.34 1012.26 1012.18 1012.12 1012.06 1012.00 1011.91 1011.77 1011.58 1011.32 1011.00 1010.64 1010.26 1009.90 1009.59 1009.34 1009.18 1009.11 1009.11 1009.15 1009.21 1009.25 1009.23 1009.13 1008.93 1008.64 1008.25 1007.80 1007.30 1006.79 1006.30 1005.86 1005.47 1005.15 1004.90 1004.72 1004.59 1004.50 1004.44
1012.52 1012.62 1012.66 1012.66 1012.64 1012.62 1012.59 1012.56 1012.53 1012.46 1012.35 1012.18 1011.93 1011.62 1011.25 1010.83 1010.41 1010.01 1009.66 1009.38 1009.19 1009.09 1009.06 1009.07 1009.10 1009.10 1009.05 1008.92 1008.69 1008.37 1007.96 1007.48 1006.96 1006.43 1005.91 1005.44 1005.01 1004.65 1004.36 1004.13 1003.96 1003.83 1003.74
1012.55 1012.71 1012.82 1012.89 1012.95 1013.00 1013.04 1013.06 1013.04 1012.98 1012.86 1012.66 1012.38 1012.03 1011.62 1011.17 1010.72 1010.29 1009.91 1009.61 1009.40 1009.27 1009.20 1009.18 1009.17 1009.13 1009.04 1008.88 1008.62 1008.27 1007.85 1007.35 1006.82 1006.27 1005.73 1005.22 1004.75 1004.35 1003.99 1003.70 1003.46 1003.26 1003.11
1012.51 1012.73 1012.91 1013.07 1013.21 1013.33 1013.42 1013.48 1013.49 1013.44 1013.31 1013.11 1012.81 1012.45 1012.03 1011.58 1011.12 1010.70 1010.33 1010.02 1009.80 1009.65 1009.55 1009.49 1009.44 1009.36 1009.23 1009.02 1008.74 1008.37 1007.93 1007.43 1006.89 1006.33 1005.77 1005.23 1004.72 1004.26 1003.83 1003.46 1003.12 1002.84 1002.59
1012.40 1012.67 1012.92 1013.15 1013.35 1013.53 1013.67 1013.76 1013.80 1013.76 1013.64 1013.44 1013.15 1012.81 1012.41 1011.99 1011.57 1011.18 1010.83 1010.55 1010.33 1010.18 1010.06 1009.97 1009.87 1009.75 1009.58 1009.34 1009.03 1008.65 1008.20 1007.69 1007.15 1006.58 1006.01 1005.45 1004.90 1004.38 1003.88 1003.42 1002.99 1002.59 1002.24
1012.23 1012.55 1012.85 1013.12 1013.37 1013.58 1013.74 1013.86 1013.91 1013.88 1013.78 1013.61 1013.36 1013.05 1012.71 1012.35 1012.00 1011.67 1011.37 1011.13 1010.93 1010.78 1010.65 1010.53 1010.40 1010.24 1010.03 1009.76 1009.43 1009.03 1008.58 1008.07 1007.54 1006.98 1006.40 1005.82 1005.24 1004.68 1004.12 1003.57 1003.05 1002.55 1002.08
1012.05 1012.39 1012.71 1013.01 1013.26 1013.48 1013.66 1013.78 1013.83 1013.83 1013.75 1013.61 1013.42 1013.18 1012.91 1012.63 1012.36 1012.10 1011.87 1011.68 1011.51 1011.36 1011.22 1011.07 1010.91 1010.71 1010.47 1010.17 1009.82 1009.41 1008.96 1008.48 1007.95 1007.41 1006.84 1006.26 1005.67 1005.08 1004.47 1003.87 1003.27 1002.68 1002.12
1011.87 1012.22 1012.54 1012.83 1013.08 1013.29 1013.45 1013.56 1013.62 1013.63 1013.59 1013.50 1013.36 1013.20 1013.01 1012.82 1012.63 1012.44 1012.27 1012.11 1011.96 1011.81 1011.65 1011.47 1011.27 1011.04 1010.76 1010.44 1010.08 1009.68 1009.24 1008.77 1008.28 1007.76 1007.23 1006.67 1006.09 1005.49 1004.86 1004.23 1003.58 1002.93 1002.29
1011.70 1012.05 1012.36 1012.62 1012.85 1013.03 1013.18 1013.28 1013.34 1013.37 1013.35 1013.31 1013.23 1013.14 1013.02 1012.90 1012.77 1012.64 1012.50 1012.35 1012.20 1012.03 1011.84 1011.62 1011.38 1011.11 1010.80 1010.46 1010.10 1009.71 1009.30 1008.86 1008.41 1007.94 1007.45 1006.93 1006.38 1005.80 1005.19 1004.55 1003.89 1003.20 1002.52
1011.54 1011.88 1012.16 1012.40 1012.61 1012.77 1012.90 1012.99 1013.06 1013.10 1013.11 1013.10 1013.07 1013.03 1012.96 1012.88 1012.78 1012.66 1012.52 1012.36 1012.18 1011.96 1011.72 1011.46 1011.17 1010.86 1010.52 1010.18 1009.82 1009.45 1009.07 1008.68 1008.29 1007.87 1007.44 1006.98 1006.48 1005.95 1005.37 1004.76 1004.10 1003.42 1002.71
1011.37 1011.69 1011.96 1012.18 1012.36 1012.51 1012.63 1012.72 1012.80 1012.85 1012.89 1012.91 1012.91 1012.88 1012.83 1012.76 1012.65 1012.51 1012.33 1012.12 1011.87 1011.60 1011.29 1010.97 1010.63 1010.28 1009.93 1009.59 1009.24 1008.90 1008.57 1008.23 1007.89 1007.55 1007.18 1006.78 1006.35 1005.87 1005.35 1004.78 1004.16 1003.49 1002.79
1011.14 1011.46 1011.72 1011.94 1012.11 1012.26 1012.38 1012.48 1012.57 1012.64 1012.69 1012.73 1012.73 1012.70 1012.64 1012.53 1012.38 1012.18 1011.94 1011.66 1011.33 1010.98 1010.62 1010.24 1009.86 1009.48 1009.12 1008.78 1008.46 1008.15 1007.86 1007.58 1007.29 1007.00 1006.70 1006.36 1005.99 1005.58 1005.11 1004.60 1004.02 1003.39 1002.71
1010.85 1011.17 1011.43 1011.65 1011.84 1011.99 1012.13 1012.25 1012.35 1012.44 1012.50 1012.53 1012.52 1012.47 1012.37 1012.21 1012.00 1011.73 1011.41 1011.04 1010.64 1010.22 1009.79 1009.37 1008.96 1008.57 1008.21 1007.88 1007.58 1007.30 1007.05 1006.80 1006.56 1006.32 1006.05 1005.77 1005.45 1005.09 1004.68 1004.22 1003.69 1003.11 1002.47
1010.49 1010.80 1011.08 1011.31 1011.52 1011.69 1011.85 1011.99 1012.11 1012.21 1012.27 1012.30 1012.27 1012.18 1012.03 1011.81 1011.53 1011.18 1010.79 1010.35 1009.89 1009.41 1008.95 1008.49 1008.07 1007.68 1007.32 1007.00 1006.71 1006.45 1006.21 1005.98 1005.76 1005.53 1005.28 1005.02 1004.73 1004.41 1004.05 1003.65 1003.18 1002.66 1002.08
Thickness
5690 5686 5683 5680 5676 5672 5669 5666 5663 5661 5658 5656 5654 5652 5650 5649 5647 5646 5645 5644 5643 5643 5644 5645 5647 5649 5650 5653 5655 5658 5661 5663 5666 5673 5679 5686 5692 5697 5702 5706 5710 5714 5717
5691 5687 5684 5681 5677 5673 5670 5667 5664 5661 5659 5656 5654 5651 5649 5648 5646 5644 5643 5641 5640 5639 5640 5641 5642 5644 5645 5647 5649 5652 5655 5658 5661 5665 5671 5677 5683 5689 5695 5699 5703 5707 5711
5692 5688 5684 5681 5677 5674 5671 5668 5665 5662 5659 5656 5653 5651 5649 5647 5645 5644 5641 5639 5637 5636 5636 5637 5639 5640 5641 5642 5644 5647 5649 5652 5656 5659 5664 5669 5675 5681 5686 5691 5696 5700 5704
5692 5688 5685 5681 5678 5674 5671 5668 5665 5662 5659 5656 5653 5651 5649 5647 5645 5643 5641 5638 5636 5635 5635 5635 5636 5637 5638 5640 5641 5643 5645 5647 5650 5653 5657 5662 5667 5673 5677 5681 5686 5691 5696
5693 5689 5686 5682 5679 5675 5672 5669 5666 5663 5660 5657 5654 5651 5649 5647 5646 5644 5641 5638 5636 5635 5634 5635 5636 5637 5639 5639 5640 5641 5642 5643 5645 5648 5652 5655 5660 5664 5669 5673 5677 5682 5687
5693 5689 5686 5682 5679 5675 5672 5669 5666 5663 5660 5657 5654 5651 5649 5648 5647 5646 5643 5639 5636 5635 5634 5635 5636 5637 5638 5639 5640 5641 5641 5641 5642 5644 5647 5650 5654 5659 5663 5666 5669 5673 5677
5692 5689 5685 5682 5678 5675 5672 5669 5666 5663 5660 5657 5654 5652 5649 5648 5647 5646 5644 5640 5637 5635 5634 5634 5635 5636 5636 5636 5637 5639 5640 5641 5642 5642 5644 5647 5650 5654 5657 5660 5663 5666 5670
5691 5687 5684 5681 5677 5674 5671 5668 5665 5662 5659 5656 5654 5652 5650 5649 5649 5647 5645 5641 5638 5636 5635 5634 5633 5634 5634 5635 5635 5636 5636 5638 5639 5641 5642 5644 5647 5649 5652 5655 5658 5660 5664
5688 5685 5682 5679 5675 5672 5669 5666 5664 5661 5659 5656 5654 5652 5649 5649 5648 5647 5645 5641 5638 5637 5636 5635 5634 5633 5634 5634 5633 5633 5634 5636 5638 5639 5640 5642 5644 5646 5648 5648 5650 5652 5655
5686 5683 5680 5677 5673 5670 5667 5664 5662 5659 5657 5655 5653 5651 5648 5647 5647 5646 5644 5640 5637 5636 5635 5635 5634 5634 5634 5633 5632 5632 5633 5634 5635 5636 5637 5639 5641 5642 5643 5644 5645 5646 5649
5683 5680 5677 5674 5671 5667 5664 5662 5659 5657 5654 5652 5650 5648 5646 5645 5644 5644 5642 5639 5636 5634 5633 5633 5633 5633 5633 5633 5632 5631 5632 5633 5633 5633 5634 5635 5637 5638 5639 5641 5642 5643 5645
5678 5675 5672 5669 5667 5665 5661 5658 5656 5653 5650 5647 5645 5644 5643 5641 5641 5640 5639 5638 5636 5632 5631 5631 5630 5631 5631 5631 5630 5630 5630 5630 5630 5630 5630 5631 5632 5634 5635 5637 5639 5640 5642
5673 5669 5666 5663 5660 5658 5655 5652 5650 5647 5644 5642 5639 5637 5636 5636 5635 5636 5635 5634 5633 5630 5629 5629 5628 5628 5628 5627 5627 5627 5627 5626 5625 5625 5626 5627 5629 5630 5631 5632 5634 5635 5637
5666 5662 5659 5656 5653 5651 5648 5646 5643 5640 5637 5635 5633 5631 5629 5629 5629 5629 5628 5627 5627 5626 5625 5624 5623 5622 5622 5621 5621 5621 5620 5620 5620 5620 5621 5622 5624 5624 5625 5627 5628 5629 5631
5658 5655 5651 5648 5645 5643 5640 5638 5636 5633 5631 5629 5626 5624 5622 5621 5622 5622 5621 5620 5619 5618 5617 5616 5615 5614 5613 5613 5613 5613 5613 5613 5613 5614 5615 5617 5618 5619 5620 5621 5622 5623 5625
5651 5646 5643 5640 5637 5634 5631 5630 5629 5627 5626 5624 5622 5619 5616 5615 5615 5615 5614 5613 5612 5611 5609 5605 5603 5603 5602 5602 5602 5602 5603 5603 5604 5605 5607 5608 5610 5611 5614 5615 5616 5617 5619
5643 5639 5635 5632 5628 5625 5622 5619 5617 5616 5616 5614 5613 5611 5609 5608 5607 5606 5604 5603 5602 5601 5597 5594 5592 5591 5591 5591 5591 5591 5591 5591 5592 5593 5595 5597 5600 5602 5604 5607 5609 5611 5613
5635 5633 5627 5623 5619 5616 5613 5610 5607 5604 5602 5600 5601 5600 5599 5598 5597 5596 5594 5593 5589 5587 5584 5582 5580 5579 5579 5578 5578 5578 5579 5579 5580 5581 5583 5584 5586 5589 5593 5596 5598 5601 5604
5627 5622 5618 5614 5610 5607 5603 5600 5597 5594 5591 5588 5587 5587 5587 5586 5585 5584 5582 5579 5576 5573 5571 5570 5569 5568 5567 5566 5566 5566 5566 5566 5567 5568 5569 5571 5572 5575 5578 5582 5586 5589 5592
5618 5617 5611 5605 5601 5597 5594 5590 5587 5584 5581 5578 5577 5575 5574 5573 5571 5569 5568 5566 5564 5562 5560 5559 5558 5557 5556 5555 5554 5554 5554 5554 5554 5555 5556 5557 5559 5561 5564 5567 5571 5575 5580
5609 5606 5604 5596 5591 5587 5584 5580 5577 5574 5571 5568 5566 5565 5565 5562 5559 5557 5556 5554 5552 5551 5549 5548 5547 5545 5544 5543 5543 5542 5542 5542 5541 5541 5542 5543 5545 5547 5549 5552 5556 5560 5565
5598 5593 5589 5585 5581 5577 5573 5570 5566 5563 5560 5558 5555 5554 5554 5550 5548 5546 5544 5543 5541 5540 5538 5536 5535 5534 5532 5531 5530 5529 5529 5528 5528 5528 5528 5529 5530 5532 5534 5537 5541 5544 5549
5587 5583 5578 5574 5570 5568 5563 5559 5555 5552 5550 5547 5545 5543 5541 5539 5537 5535 5534 5532 5530 5528 5527 5525 5523 5522 5520 5518 5517 5515 5514 5513 5513 5512 5512 5513 5514 5516 5518 5520 5524 5527 5532
5576 5572 5567 5562 5558 5555 5551 5548 5544 5542 5539 5537 5534 5532 5530 5528 5526 5524 5523 5521 5519 5517 5515 5513 5511 5510 5508 5506 5504 5502 5500 5498 5497 5496 5495 5496 5497 5499 5500 5503 5506 5510 5514
5564 5560 5556 5551 5548 5544 5540 5537 5534 5531 5529 5526 5524 5522 5519 5517 5515 5514 5512 5510 5508 5507 5505 5502 5500 5498 5496 5493 5491 5488 5486 5483 5481 5479 5478 5479 5480 5481 5482 5485 5488 5492 5497
5552 5549 5544 5540 5536 5533 5529 5526 5523 5520 5517 5516 5513 5511 5509 5507 5505 5503 5502 5500 5497 5496 5493 5491 5489 5486 5483 5481 5478 5475 5472 5469 5467 5464 5462 5462 5463 5464 5465 5467 5470 5474 5479